{"data":{"norad_id":48278,"epoch":"2026-09-19T12:03:20.296800Z","epoch_age_seconds":119931,"freshness":"FRESH","line1":"1 48278U 21036C   26262.50231825 -.00000197  00000+0  54099-5 0  9994","line2":"2 48278  53.1589 202.4237 0001310  85.1978 274.9173 15.31698507298811","mean_motion":15.31698507,"eccentricity":0.000131,"inclination_deg":53.1589,"raan_deg":202.4237,"arg_perigee_deg":85.1978,"mean_anomaly_deg":274.9173,"bstar":5.4099e-6,"rev_number":29881,"period_min":94.013279599025,"perigee_km":469.84724231518,"apogee_km":471.64164925397,"semimajor_km":6848.8814457846,"source":"CELESTRAK","updated_at":"2026-09-20T09:00:38.927786Z"}}